{"data":{"norad_id":62131,"epoch":"2026-09-20T23:35:08.262528Z","epoch_age_seconds":140577,"freshness":"FRESH","line1":"1 62131U 24222T   26263.98273452  .00011353  00000+0  42133-3 0  9992","line2":"2 62131  43.0038 113.5140 0001312 284.3008  75.7698 15.27588433102663","mean_motion":15.27588433,"eccentricity":0.0001312,"inclination_deg":43.0038,"raan_deg":113.514,"arg_perigee_deg":284.3008,"mean_anomaly_deg":75.7698,"bstar":0.00042133,"rev_number":10266,"period_min":94.266228317271,"perigee_km":482.12366041724,"apogee_km":483.92402902289,"semimajor_km":6861.1608447201,"source":"CELESTRAK","updated_at":"2026-09-22T09:00:49.527139Z"}}